Bartlesville, OK

6:47 PM CDT on July 24, 2017 (GMT -0500)
Bartlesville Municipal

Weather History for KBVO - January, 2014

Change the Weather History Date:

Monday, January 27, 2014

  Actual Average Record
Temperature  
Mean Temperature 23 °F -  
Max Temperature 30 °F 48 °F 70 °F (2015)
Min Temperature 16 °F 23 °F 16 °F (2014)
Degree Days  
Heating Degree Days 42    
Moisture  
Dew Point -4 °F    
Average Humidity 35    
Maximum Humidity 39    
Minimum Humidity 30    
Precipitation  
Precipitation 0.00 in - - ()
Sea Level Pressure  
Sea Level Pressure 30.44 in    
Wind  
Wind Speed 20 mph (NNE)    
Max Wind Speed 31 mph    
Max Gust Speed 40 mph    
Visibility 10 miles    
Events      
Averages and records for this station are not official NWS values.
T = Trace of Precipitation, MM = Missing Value Source: NWS Daily Summary

Daily Weather History Graph

Daily Weather History Graph

Search for Another Location

Airport or City:

Trip Planner

Search our weather history database for the weather conditions in past years. The results will help you decide how hot, cold, wet, or windy it might be!

Date:

Astronomy

Jan. 27, 2014 Rise Set
Actual Time 7:29 AM CST 5:44 PM CST
Civil Twilight 7:02 AM CST 6:11 PM CST
Nautical Twilight 6:31 AM CST 6:43 PM CST
Astronomical Twilight 6:00 AM CST 7:13 PM CST
Moon 4:11 AM CST (1/27) 2:32 PM CST (1/27)
Length of Visible Light 11h 09m
Length of Day
10h 14m
Waning Crescent, 14% of the Moon is Illuminated
Jan 27
Waning Crescent
Jan 30
New
Feb 6
First Quarter
Feb 14
Full
Feb 22
Last Quarter

Hourly Weather History & Observations

Time (CST) Temp. Windchill Dew Point Humidity Pressure Visibility Wind Dir Wind Speed Gust Speed Precip Events Conditions
12:53 AM 30.0 °F 14.9 °F 1.9 °F 30% 30.17 in 10.0 mi North 29.9 mph 40.3 mph N/A   Mostly Cloudy
1:53 AM 28.0 °F 12.0 °F 3.0 °F 34% 30.23 in 10.0 mi North 31.1 mph 40.3 mph N/A   Overcast
2:53 AM 25.0 °F 9.2 °F 1.0 °F 36% 30.28 in 10.0 mi North 25.3 mph 34.5 mph N/A   Overcast
3:53 AM 23.0 °F 7.2 °F -2.9 °F 32% 30.33 in 10.0 mi North 23.0 mph 34.5 mph N/A   Overcast
4:53 AM 21.9 °F 6.9 °F -0.0 °F 38% 30.35 in 10.0 mi North 19.6 mph 28.8 mph N/A   Overcast
5:53 AM 19.9 °F 3.9 °F -4.0 °F 35% 30.38 in 10.0 mi NNE 20.7 mph 34.5 mph N/A   Overcast
6:53 AM 19.0 °F 3.6 °F -2.9 °F 38% 30.42 in 10.0 mi North 18.4 mph - N/A   Overcast
7:53 AM 17.1 °F -0.3 °F -7.1 °F 34% 30.46 in 10.0 mi North 21.9 mph 32.2 mph N/A   Overcast
8:53 AM 17.1 °F 1.5 °F -4.0 °F 39% 30.50 in 10.0 mi North 17.3 mph 27.6 mph N/A   Overcast
9:53 AM 16.0 °F -0.4 °F -6.0 °F 38% 30.52 in 10.0 mi North 18.4 mph - N/A   Overcast
10:53 AM 18.0 °F 3.6 °F -5.1 °F 36% 30.53 in 10.0 mi North 15.0 mph 21.9 mph N/A   Overcast
11:53 AM 21.0 °F 9.3 °F -5.1 °F 32% 30.52 in 10.0 mi North 11.5 mph 21.9 mph N/A   Mostly Cloudy
12:53 PM 19.9 °F 11.1 °F -6.0 °F 32% 30.51 in 10.0 mi North 6.9 mph 20.7 mph N/A   Overcast
1:53 PM 21.0 °F 9.3 °F -5.1 °F 32% 30.47 in 10.0 mi North 11.5 mph 18.4 mph N/A   Overcast
2:53 PM 19.9 °F 8.6 °F -6.0 °F 32% 30.47 in 10.0 mi NNE 10.4 mph - N/A   Overcast
3:53 PM 19.0 °F 7.5 °F -6.0 °F 33% 30.47 in 10.0 mi North 10.4 mph - N/A   Overcast
4:53 PM 19.0 °F 6.8 °F -6.0 °F 33% 30.47 in 10.0 mi North 11.5 mph - N/A   Overcast
5:53 PM 19.0 °F 6.1 °F -6.0 °F 33% 30.48 in 10.0 mi North 12.7 mph - N/A   Overcast
6:53 PM 18.0 °F 4.8 °F -6.0 °F 35% 30.50 in 10.0 mi North 12.7 mph 18.4 mph N/A   Overcast
7:53 PM 18.0 °F 6.9 °F -5.1 °F 36% 30.50 in 10.0 mi NNE 9.2 mph - N/A   Overcast
8:53 PM 17.1 °F 3.6 °F -6.0 °F 36% 30.51 in 10.0 mi NNE 12.7 mph - N/A   Overcast
9:53 PM 18.0 °F 6.9 °F -5.1 °F 36% 30.51 in 10.0 mi NNE 9.2 mph - N/A   Overcast
10:53 PM 17.1 °F 8.7 °F -5.1 °F 37% 30.53 in 10.0 mi NNE 5.8 mph - N/A   Overcast
11:53 PM 17.1 °F 5.0 °F -5.1 °F 37% 30.53 in 8.0 mi NE 10.4 mph - N/A   Overcast